Weather History for Seward, AK

Change the Weather History Date:

Wednesday, September 5, 2012

  Actual Average Record
Temperature  
Mean Temperature 48 °F -  
Max Temperature 53 °F 58 °F 70 °F (1985)
Min Temperature 42 °F 46 °F 39 °F (1980)
Degree Days  
Heating Degree Days 18    
Moisture  
Dew Point 46 °F    
Average Humidity 89    
Maximum Humidity 100    
Minimum Humidity 74    
Precipitation  
Precipitation 0.44 in - - ()
Sea Level Pressure  
Sea Level Pressure 29.74 in    
Wind  
Wind Speed 8 mph (SSE)    
Max Wind Speed 24 mph    
Max Gust Speed 31 mph    
Visibility 6 miles    
Events Rain    
Averages and records for this station are not official NWS values.
T = Trace of Precipitation, MM = Missing Value Source: NWS Daily Summary

Daily Weather History Graph

Daily Weather History Graph

Search for Another Location

Airport:

Trip Planner

Search our weather history database for the weather conditions in past years. The results will help you decide how hot, cold, wet, or windy it might be!

Date:

Astronomy

Sep. 05, 2012 Rise Set
Actual Time 7:03 AM AKDT 8:47 PM AKDT
Civil Twilight 6:19 AM AKDT 9:30 PM AKDT
Nautical Twilight 5:23 AM AKDT 10:26 PM AKDT
Astronomical Twilight 4:14 AM AKDT 11:34 PM AKDT
Moon 9:41 PM AKDT (9/5) 1:56 PM AKDT (9/5)
Length of Visible Light 15h 11m
Length of Day
13h 43m
Waning Gibbous, 75% of the Moon is Illuminated
Sep 5
Waning Gibbous
Sep 8
Last Quarter
Sep 15
New
Sep 22
First Quarter
Sep 29
Full

Hourly Weather History & Observations

Time (AKDT) Temp. Windchill Dew Point Humidity Pressure Visibility Wind Dir Wind Speed Gust Speed Precip Events Conditions
12:23 AM - - - N/A% 29.70 in 2.5 mi Calm Calm - 0.10 in Rain Heavy Rain
12:33 AM - - - N/A% 29.70 in 3.0 mi Calm Calm - 0.13 in Rain Rain
12:40 AM - - - N/A% 29.71 in 2.0 mi Calm Calm - 0.15 in Rain Rain
12:49 AM - - - N/A% 29.71 in 2.5 mi Calm Calm - 0.17 in Rain Rain
12:53 AM - - - N/A% 29.72 in 3.0 mi Calm Calm - 0.17 in Rain Light Rain
1:11 AM - - - N/A% 29.70 in 4.0 mi Calm Calm - 0.02 in Rain Light Rain
1:39 AM - - - N/A% 29.70 in 6.0 mi Calm Calm - 0.03 in Rain Light Rain
1:53 AM - - - N/A% 29.72 in 9.0 mi Calm Calm - 0.04 in Rain Light Rain
2:15 AM - - - N/A% 29.70 in 10.0 mi SSE 15.0 mph 20.7 mph 0.00 in   Mostly Cloudy
2:23 AM - - - N/A% 29.69 in 10.0 mi SSE 17.3 mph 24.2 mph 0.00 in   Scattered Clouds
2:53 AM - - - N/A% 29.71 in 10.0 mi South 9.2 mph 18.4 mph 0.00 in   Mostly Cloudy
3:53 AM - - - N/A% 29.71 in 10.0 mi South 8.1 mph - N/A   Mostly Cloudy
5:53 AM - - - N/A% 29.69 in 10.0 mi SSE 21.9 mph 31.1 mph 0.01 in   Overcast
6:38 AM - - - N/A% 29.68 in 7.0 mi South 13.8 mph 27.6 mph 0.00 in Rain Light Rain
6:53 AM - - - N/A% 29.69 in 9.0 mi SSE 24.2 mph 31.1 mph 0.00 in Rain Light Rain
7:53 AM - - - N/A% 29.68 in 5.0 mi SSE 20.7 mph 31.1 mph 0.01 in Rain Light Rain
8:03 AM - - - N/A% 29.67 in 7.0 mi SSE 24.2 mph 31.1 mph 0.00 in Rain Light Rain
8:10 AM - - - N/A% 29.67 in 6.0 mi South 17.3 mph 31.1 mph 0.00 in   Overcast
8:33 AM - - - N/A% 29.68 in 9.0 mi SSE 16.1 mph 26.5 mph 0.00 in   Overcast
8:45 AM - - - N/A% 29.68 in 5.0 mi SSE 19.6 mph 29.9 mph 0.00 in Rain Light Rain
8:51 AM - - - N/A% 29.68 in 6.0 mi SSE 19.6 mph 29.9 mph 0.01 in   Unknown
8:53 AM - - - N/A% 29.69 in 6.0 mi SSE 20.7 mph 27.6 mph 0.01 in   Unknown
9:10 AM - - - N/A% 29.68 in 1.8 mi South 9.2 mph 26.5 mph 0.02 in Rain Rain
9:18 AM - - - N/A% 29.68 in 2.5 mi SSE 19.6 mph 28.8 mph 0.02 in Rain Light Rain
9:22 AM - - - N/A% 29.69 in 5.0 mi South 12.7 mph 28.8 mph 0.02 in Rain Light Rain
9:31 AM - - - N/A% 29.68 in 6.0 mi SSE 19.6 mph 31.1 mph 0.03 in Rain Light Rain
9:53 AM - - - N/A% 29.70 in 4.0 mi South 11.5 mph 28.8 mph 0.04 in Rain Light Rain
10:31 AM - - - N/A% 29.69 in 2.5 mi South 17.3 mph 27.6 mph 0.02 in Rain Light Rain
10:38 AM - - - N/A% 29.70 in 7.0 mi SSE 18.4 mph 28.8 mph 0.02 in   Overcast
10:53 AM - - - N/A% 29.71 in 3.0 mi SSE 19.6 mph 26.5 mph 0.03 in   Unknown
11:15 AM - - - N/A% 29.70 in 7.0 mi SSE 13.8 mph 24.2 mph 0.00 in Rain Light Rain
11:35 AM 51.8 °F - 48.2 °F 88% 29.71 in 8.0 mi SSE 15.0 mph 26.5 mph 0.00 in   Overcast
11:53 AM 53.1 °F - 46.9 °F 80% 29.71 in 9.0 mi SSE 13.8 mph 23.0 mph 0.00 in Rain Light Rain
12:53 PM 52.0 °F - 48.9 °F 89% 29.73 in 9.0 mi SSE 13.8 mph 20.7 mph 0.00 in   Overcast
1:00 PM 51.8 °F - 48.2 °F 88% 29.73 in 9.0 mi SSE 12.7 mph 20.7 mph N/A   Overcast
1:33 PM 51.8 °F - 48.2 °F 88% 29.73 in 6.0 mi South 9.2 mph 18.4 mph 0.00 in Rain Light Rain
1:46 PM 51.8 °F - 48.2 °F 88% 29.73 in 8.0 mi South 10.4 mph 18.4 mph 0.00 in   Overcast
1:53 PM 52.0 °F - 48.0 °F 86% 29.74 in 7.0 mi SSE 11.5 mph 20.7 mph 0.00 in   Overcast
2:53 PM 52.0 °F - 48.0 °F 86% 29.75 in 8.0 mi South 11.5 mph 18.4 mph N/A   Overcast
3:53 PM 53.1 °F - 48.0 °F 83% 29.75 in 7.0 mi South 11.5 mph 21.9 mph 0.01 in   Overcast
4:53 PM 53.1 °F - 46.9 °F 80% 29.76 in 10.0 mi South 6.9 mph - 0.00 in   Overcast
5:53 PM 53.1 °F - 45.0 °F 74% 29.77 in 10.0 mi SSW 11.5 mph - 0.00 in   Overcast
6:40 PM 51.8 °F - 44.6 °F 76% 29.78 in 1.8 mi SE 12.7 mph 17.3 mph 0.10 in Rain Heavy Rain
6:47 PM 51.8 °F - 46.4 °F 82% 29.79 in 3.0 mi Calm Calm - 0.11 in Rain Light Rain
6:53 PM 50.0 °F - 46.0 °F 86% 29.80 in 9.0 mi WNW 3.5 mph - 0.11 in Rain Light Rain
7:53 PM 50.0 °F - 46.9 °F 89% 29.82 in 10.0 mi Calm Calm - 0.00 in   Overcast
8:53 PM 48.0 °F - 46.0 °F 93% 29.84 in 10.0 mi Calm Calm - N/A   Mostly Cloudy
9:12 PM 46.4 °F - 44.6 °F 93% 29.84 in 1.8 mi Calm Calm - N/A   Scattered Clouds
9:20 PM 46.4 °F 45.2 °F 44.6 °F 93% 29.84 in 3.0 mi Variable 3.5 mph - N/A   Scattered Clouds
9:43 PM 46.4 °F 44.3 °F 44.6 °F 93% 29.85 in 1.8 mi SSE 4.6 mph - N/A   Scattered Clouds
9:53 PM 45.0 °F - 44.1 °F 97% 29.86 in 1.8 mi Calm Calm - N/A   Scattered Clouds
9:55 PM 44.6 °F - 44.6 °F 100% 29.86 in 3.0 mi Calm Calm - N/A   Scattered Clouds
10:04 PM 42.8 °F - 42.8 °F 100% 29.86 in 1.8 mi Calm Calm - N/A   Scattered Clouds
10:18 PM 44.6 °F - 42.8 °F 93% 29.87 in 3.0 mi Calm Calm - N/A   Partly Cloudy
10:53 PM 44.1 °F - 44.1 °F 100% 29.88 in 9.0 mi Calm Calm - 0.01 in   Mostly Cloudy
11:53 PM 43.0 °F 40.3 °F 43.0 °F 100% 29.91 in 10.0 mi SW 4.6 mph - 0.00 in   Mostly Cloudy